Time,TemperatureF,DewpointF,PressureIn,WindDirection,WindDirectionDegrees,WindSpeedMPH,WindSpeedGustMPH,Humidity,HourlyPrecipIn,Conditions,Clouds,dailyrainin,SoftwareType,DateUTC
2013-11-22 00:01:00,39.7,36.4,30.23,South,180,0.9,2.3,88,0.00,-RA,,0.00,WeatherDisplay:10.37,2013-11-22 05:01:00,
2013-11-22 00:02:00,39.7,36.4,30.23,SSE,158,1.4,2.3,88,0.00,-RA,,0.00,WeatherDisplay:10.37,2013-11-22 05:02:00,
2013-11-22 00:07:00,39.7,36.4,30.22,South,180,1.9,2.3,88,0.00,-RA,,0.01,WeatherDisplay:10.37,2013-11-22 05:07:00,
2013-11-22 00:12:00,39.7,36.4,30.22,South,180,0.0,1.1,88,0.00,-RA,,0.01,WeatherDisplay:10.37,2013-11-22 05:12:00,
2013-11-22 00:17:00,39.7,36.4,30.22,SSE,158,1.4,2.2,88,0.00,-RA,,0.01,WeatherDisplay:10.37,2013-11-22 05:17:00,
2013-11-22 00:22:00,39.7,36.7,30.22,SSE,158,0.0,0.0,89,0.00,-RA,,0.01,WeatherDisplay:10.37,2013-11-22 05:22:00,
2013-11-22 00:27:00,39.7,36.7,30.22,SSE,158,1.9,2.3,89,0.00,-RA,,0.01,WeatherDisplay:10.37,2013-11-22 05:27:00,
2013-11-22 00:32:00,39.9,36.9,30.22,SE,135,2.5,2.7,89,0.00,-RA,,0.01,WeatherDisplay:10.37,2013-11-22 05:32:00,
2013-11-22 00:37:00,39.9,36.9,30.22,SSE,158,2.5,2.5,89,0.00,-RA,,0.01,WeatherDisplay:10.37,2013-11-22 05:37:00,
2013-11-22 00:42:00,39.9,37.2,30.21,SSE,158,0.0,0.0,90,0.00,-RA,,0.01,WeatherDisplay:10.37,2013-11-22 05:42:00,
2013-11-22 00:47:00,39.9,37.2,30.21,SE,135,2.0,2.3,90,0.00,-RA,,0.01,WeatherDisplay:10.37,2013-11-22 05:47:00,
2013-11-22 00:52:00,39.9,37.2,30.21,SE,135,2.1,2.3,90,0.00,-RA,,0.01,WeatherDisplay:10.37,2013-11-22 05:52:00,
2013-11-22 00:57:00,39.9,37.2,30.21,SE,135,2.1,2.3,90,0.00,-RA,,0.01,WeatherDisplay:10.37,2013-11-22 05:57:00,
2013-11-22 01:02:00,39.9,37.2,30.21,SSE,158,1.8,2.7,90,0.01,-RA,,0.01,WeatherDisplay:10.37,2013-11-22 06:02:00,
2013-11-22 01:07:00,39.9,37.5,30.21,SE,135,2.1,2.7,91,0.00,-RA,,0.01,WeatherDisplay:10.37,2013-11-22 06:07:00,
2013-11-22 01:12:00,39.9,37.5,30.21,SSE,158,1.5,3.5,91,0.00,-RA,,0.01,WeatherDisplay:10.37,2013-11-22 06:12:00,
2013-11-22 01:17:00,39.9,37.5,30.20,SSE,158,2.0,2.3,91,0.00,-RA,,0.01,WeatherDisplay:10.37,2013-11-22 06:17:00,
2013-11-22 01:22:00,39.9,37.5,30.20,SE,135,2.7,3.5,91,0.00,-RA,,0.01,WeatherDisplay:10.37,2013-11-22 06:22:00,
2013-11-22 01:27:00,40.1,37.7,30.19,SE,135,2.5,3.5,91,0.00,-RA,,0.01,WeatherDisplay:10.37,2013-11-22 06:27:00,
2013-11-22 01:32:00,40.1,37.7,30.19,SSE,158,1.8,2.3,91,0.00,-RA,,0.01,WeatherDisplay:10.37,2013-11-22 06:32:00,
2013-11-22 01:37:00,40.1,38.0,30.19,SSE,158,1.8,2.3,92,0.00,-RA,,0.01,WeatherDisplay:10.37,2013-11-22 06:37:00,
2013-11-22 01:42:00,40.1,38.0,30.19,SSE,158,2.7,3.5,92,0.00,-RA,,0.01,WeatherDisplay:10.37,2013-11-22 06:42:00,
2013-11-22 01:47:00,40.3,38.2,30.19,SSE,158,2.7,3.5,92,0.00,-RA,,0.01,WeatherDisplay:10.37,2013-11-22 06:47:00,
2013-11-22 01:52:00,40.3,38.2,30.18,South,180,3.1,4.6,92,0.00,-RA,,0.01,WeatherDisplay:10.37,2013-11-22 06:52:00,
2013-11-22 01:57:00,40.5,38.4,30.18,SSE,158,2.5,2.5,92,0.01,-RA,,0.02,WeatherDisplay:10.37,2013-11-22 06:57:00,
2013-11-22 02:02:00,40.5,38.6,30.18,SSW,202,1.1,2.3,93,0.01,-RA,,0.02,WeatherDisplay:10.37,2013-11-22 07:02:00,
2013-11-22 02:07:00,40.5,38.9,30.18,SSE,158,1.7,2.3,94,0.01,-RA,,0.02,WeatherDisplay:10.37,2013-11-22 07:07:00,
2013-11-22 02:12:00,40.6,39.0,30.18,South,180,1.8,2.3,94,0.01,-RA,,0.02,WeatherDisplay:10.37,2013-11-22 07:12:00,
2013-11-22 02:17:00,40.6,39.3,30.18,West,270,0.9,1.1,95,0.02,-RA,,0.03,WeatherDisplay:10.37,2013-11-22 07:17:00,
2013-11-22 02:22:00,40.6,39.3,30.18,SW,225,1.8,2.3,95,0.02,-RA,,0.03,WeatherDisplay:10.37,2013-11-22 07:22:00,
2013-11-22 02:27:00,40.6,39.3,30.19,SSE,158,0.0,1.1,95,0.03,-RA,,0.04,WeatherDisplay:10.37,2013-11-22 07:27:00,
2013-11-22 02:32:00,40.8,39.5,30.19,SSE,158,2.0,2.2,95,0.03,-RA,,0.04,WeatherDisplay:10.37,2013-11-22 07:32:00,
2013-11-22 02:37:00,40.8,39.5,30.19,SSE,158,1.2,1.2,95,0.04,-RA,,0.05,WeatherDisplay:10.37,2013-11-22 07:37:00,
2013-11-22 02:42:00,40.8,39.5,30.19,SSE,158,1.8,2.7,95,0.04,-RA,,0.05,WeatherDisplay:10.37,2013-11-22 07:42:00,
2013-11-22 02:47:00,40.8,39.5,30.19,South,180,2.6,3.7,95,0.04,-RA,,0.05,WeatherDisplay:10.37,2013-11-22 07:47:00,
2013-11-22 02:52:00,41.0,39.7,30.18,South,180,2.1,2.7,95,0.05,-RA,,0.06,WeatherDisplay:10.37,2013-11-22 07:52:00,
2013-11-22 02:57:00,41.0,39.7,30.18,SSE,158,1.1,1.1,95,0.04,-RA,,0.06,WeatherDisplay:10.37,2013-11-22 07:57:00,
2013-11-22 03:02:00,41.0,39.7,30.17,SSE,158,2.2,2.7,95,0.04,-RA,,0.06,WeatherDisplay:10.37,2013-11-22 08:02:00,
2013-11-22 03:07:00,41.0,39.7,30.17,South,180,2.1,2.7,95,0.04,-RA,,0.06,WeatherDisplay:10.37,2013-11-22 08:07:00,
2013-11-22 03:12:00,41.0,39.7,30.17,SSE,158,2.8,3.2,95,0.04,-RA,,0.06,WeatherDisplay:10.37,2013-11-22 08:12:00,
2013-11-22 03:17:00,41.0,39.7,30.18,SSE,158,2.5,2.7,95,0.03,-RA,,0.06,WeatherDisplay:10.37,2013-11-22 08:17:00,
2013-11-22 03:22:00,41.0,39.7,30.18,SSE,158,1.9,2.3,95,0.03,-RA,,0.06,WeatherDisplay:10.37,2013-11-22 08:22:00,
2013-11-22 03:27:00,41.0,39.7,30.17,SSE,158,2.3,2.3,95,0.02,-RA,,0.06,WeatherDisplay:10.37,2013-11-22 08:27:00,
2013-11-22 03:32:00,41.0,39.7,30.17,SW,225,0.7,2.3,95,0.02,-RA,,0.06,WeatherDisplay:10.37,2013-11-22 08:32:00,
2013-11-22 03:37:00,41.0,39.7,30.17,SE,135,0.5,2.2,95,0.02,-RA,,0.07,WeatherDisplay:10.37,2013-11-22 08:37:00,
2013-11-22 03:42:00,41.0,39.7,30.17,SE,135,2.6,2.6,95,0.02,-RA,,0.07,WeatherDisplay:10.37,2013-11-22 08:42:00,
2013-11-22 03:47:00,41.0,39.7,30.17,ESE,112,1.2,2.2,95,0.02,-RA,,0.07,WeatherDisplay:10.37,2013-11-22 08:47:00,
2013-11-22 03:52:00,41.0,39.7,30.16,SSE,158,2.1,2.3,95,0.02,-RA,,0.08,WeatherDisplay:10.37,2013-11-22 08:52:00,
2013-11-22 03:57:00,41.0,39.7,30.16,SSE,158,1.2,2.3,95,0.02,-RA,,0.08,WeatherDisplay:10.37,2013-11-22 08:57:00,
2013-11-22 04:02:00,41.0,39.7,30.16,SSE,158,2.1,2.3,95,0.03,-RA,,0.09,WeatherDisplay:10.37,2013-11-22 09:02:00,
2013-11-22 04:07:00,41.2,39.9,30.16,South,180,0.0,2.3,95,0.03,-RA,,0.09,WeatherDisplay:10.37,2013-11-22 09:07:00,
2013-11-22 04:12:00,41.2,39.9,30.16,South,180,2.3,2.3,95,0.03,-RA,,0.09,WeatherDisplay:10.37,2013-11-22 09:12:00,
2013-11-22 04:17:00,41.2,39.9,30.15,SW,225,1.2,2.3,95,0.03,-RA,,0.09,WeatherDisplay:10.37,2013-11-22 09:17:00,
2013-11-22 04:22:00,41.2,39.9,30.15,SSE,158,0.0,0.0,95,0.03,-RA,,0.09,WeatherDisplay:10.37,2013-11-22 09:22:00,
2013-11-22 04:27:00,41.4,40.1,30.15,SSE,158,0.6,1.1,95,0.03,-RA,,0.09,WeatherDisplay:10.37,2013-11-22 09:27:00,
2013-11-22 04:32:00,41.4,40.1,30.15,South,180,0.0,0.0,95,0.04,-RA,,0.10,WeatherDisplay:10.37,2013-11-22 09:32:00,
2013-11-22 04:37:00,41.4,40.1,30.15,SSE,158,0.0,0.0,95,0.03,-RA,,0.10,WeatherDisplay:10.37,2013-11-22 09:37:00,
2013-11-22 04:42:00,41.4,40.1,30.15,ESE,112,0.0,0.0,95,0.03,-RA,,0.10,WeatherDisplay:10.37,2013-11-22 09:42:00,
2013-11-22 04:47:00,41.4,40.1,30.15,SE,135,0.0,0.0,95,0.03,-RA,,0.10,WeatherDisplay:10.37,2013-11-22 09:47:00,
2013-11-22 04:52:00,41.4,40.1,30.15,SE,135,0.0,0.0,95,0.03,-RA,,0.11,WeatherDisplay:10.37,2013-11-22 09:52:00,
2013-11-22 04:57:00,41.4,40.1,30.15,ESE,112,0.7,2.3,95,0.03,-RA,,0.11,WeatherDisplay:10.37,2013-11-22 09:57:00,
2013-11-22 05:02:00,41.4,40.1,30.15,ESE,112,0.0,0.0,95,0.02,-RA,,0.11,WeatherDisplay:10.37,2013-11-22 10:02:00,
2013-11-22 05:07:00,41.4,40.1,30.14,ESE,112,1.5,1.7,95,0.02,-RA,,0.11,WeatherDisplay:10.37,2013-11-22 10:07:00,
2013-11-22 05:12:00,41.4,40.1,30.14,SSE,158,1.2,1.7,95,0.02,-RA,,0.11,WeatherDisplay:10.37,2013-11-22 10:12:00,
2013-11-22 05:17:00,41.4,40.1,30.14,SSE,158,0.0,0.0,95,0.02,-RA,,0.11,WeatherDisplay:10.37,2013-11-22 10:17:00,
2013-11-22 05:22:00,41.4,40.1,30.14,SSE,158,0.0,0.0,95,0.02,-RA,,0.11,WeatherDisplay:10.37,2013-11-22 10:22:00,
2013-11-22 05:27:00,41.4,40.1,30.13,South,180,0.0,0.0,95,0.02,-RA,,0.11,WeatherDisplay:10.37,2013-11-22 10:27:00,
2013-11-22 05:32:00,41.4,40.1,30.13,SSE,158,0.0,0.0,95,0.01,-RA,,0.11,WeatherDisplay:10.37,2013-11-22 10:32:00,
2013-11-22 05:37:00,41.4,40.1,30.13,SW,225,0.0,0.0,95,0.01,-RA,,0.11,WeatherDisplay:10.37,2013-11-22 10:37:00,
2013-11-22 05:42:00,41.5,40.2,30.13,SSE,158,0.0,0.0,95,0.01,-RA,,0.11,WeatherDisplay:10.37,2013-11-22 10:42:00,
2013-11-22 05:47:00,41.5,40.2,30.13,SSE,158,0.0,0.0,95,0.01,-RA,,0.11,WeatherDisplay:10.37,2013-11-22 10:47:00,
2013-11-22 05:52:00,41.7,40.4,30.13,SSE,158,0.0,0.0,95,0.00,-RA,,0.11,WeatherDisplay:10.37,2013-11-22 10:52:00,
2013-11-22 05:57:00,41.9,40.6,30.13,WSW,248,1.4,1.4,95,0.00,-RA,,0.11,WeatherDisplay:10.37,2013-11-22 10:57:00,
2013-11-22 06:02:00,42.4,41.1,30.12,WSW,248,2.1,4.6,95,0.00,-RA,,0.11,WeatherDisplay:10.37,2013-11-22 11:02:00,
2013-11-22 06:07:00,42.6,41.3,30.12,SW,225,2.6,3.5,95,0.00,-RA,,0.11,WeatherDisplay:10.37,2013-11-22 11:07:00,
2013-11-22 06:12:00,43.0,41.7,30.12,West,270,1.9,2.3,95,0.00,-RA,,0.11,WeatherDisplay:10.37,2013-11-22 11:12:00,
2013-11-22 06:17:00,43.2,41.9,30.13,WSW,248,2.0,2.7,95,0.00,-RA,,0.11,WeatherDisplay:10.37,2013-11-22 11:17:00,
2013-11-22 06:22:00,43.3,42.0,30.13,WSW,248,1.4,2.3,95,0.00,-RA,,0.11,WeatherDisplay:10.37,2013-11-22 11:22:00,
2013-11-22 06:27:00,43.5,42.2,30.12,South,180,2.5,3.5,95,0.00,-RA,,0.11,WeatherDisplay:10.37,2013-11-22 11:27:00,
2013-11-22 06:32:00,43.7,42.4,30.12,SW,225,1.0,2.3,95,0.00,-RA,,0.11,WeatherDisplay:10.37,2013-11-22 11:32:00,
2013-11-22 06:37:00,43.7,42.4,30.12,South,180,1.7,3.5,95,0.00,-RA,,0.11,WeatherDisplay:10.37,2013-11-22 11:37:00,
2013-11-22 06:42:00,43.7,42.4,30.12,WSW,248,1.5,2.7,95,0.00,-RA,,0.11,WeatherDisplay:10.37,2013-11-22 11:42:00,
2013-11-22 06:47:00,43.7,42.4,30.12,SSW,202,2.5,2.5,95,0.00,-RA,,0.11,WeatherDisplay:10.37,2013-11-22 11:47:00,
2013-11-22 06:52:00,43.7,42.4,30.12,West,270,2.3,2.7,95,0.00,-RA,,0.11,WeatherDisplay:10.37,2013-11-22 11:52:00,
2013-11-22 06:57:00,43.9,42.6,30.12,West,270,3.2,4.6,95,0.00,-RA,,0.11,WeatherDisplay:10.37,2013-11-22 11:57:00,
2013-11-22 07:02:00,43.9,42.6,30.12,WSW,248,2.8,3.2,95,0.00,-RA,,0.11,WeatherDisplay:10.37,2013-11-22 12:02:00,
2013-11-22 07:07:00,43.9,42.6,30.12,West,270,2.2,3.5,95,0.01,-RA,,0.12,WeatherDisplay:10.37,2013-11-22 12:07:00,
2013-11-22 07:12:00,43.9,42.6,30.12,SW,225,2.4,3.5,95,0.01,-RA,,0.12,WeatherDisplay:10.37,2013-11-22 12:12:00,
2013-11-22 07:17:00,43.9,42.6,30.11,NW,315,2.2,4.6,95,0.01,-RA,,0.12,WeatherDisplay:10.37,2013-11-22 12:17:00,
2013-11-22 07:22:00,44.1,42.8,30.11,WSW,248,3.6,4.6,95,0.01,-RA,,0.12,WeatherDisplay:10.37,2013-11-22 12:22:00,
2013-11-22 07:27:00,44.1,42.8,30.12,WSW,248,3.1,4.2,95,0.01,-RA,,0.12,WeatherDisplay:10.37,2013-11-22 12:27:00,
2013-11-22 07:32:00,44.2,42.9,30.12,West,270,3.0,3.5,95,0.02,-RA,,0.13,WeatherDisplay:10.37,2013-11-22 12:32:00,
2013-11-22 07:37:00,44.2,42.9,30.12,NNW,338,1.0,2.3,95,0.02,-RA,,0.13,WeatherDisplay:10.37,2013-11-22 12:37:00,
2013-11-22 07:42:00,44.2,42.9,30.11,West,270,3.0,5.8,95,0.02,-RA,,0.13,WeatherDisplay:10.37,2013-11-22 12:42:00,
2013-11-22 07:47:00,44.4,43.1,30.11,WNW,292,2.3,3.5,95,0.02,-RA,,0.13,WeatherDisplay:10.37,2013-11-22 12:47:00,
2013-11-22 07:52:00,44.4,43.1,30.11,West,270,2.9,3.5,95,0.02,-RA,,0.13,WeatherDisplay:10.37,2013-11-22 12:52:00,
2013-11-22 07:57:00,44.6,43.3,30.11,West,270,2.2,2.7,95,0.02,-RA,,0.13,WeatherDisplay:10.37,2013-11-22 12:57:00,
2013-11-22 08:02:00,44.6,43.3,30.11,West,270,2.6,3.5,95,0.02,-RA,,0.13,WeatherDisplay:10.37,2013-11-22 13:02:00,
2013-11-22 08:07:00,44.8,43.5,30.11,South,180,4.2,4.7,95,0.01,-RA,,0.13,WeatherDisplay:10.37,2013-11-22 13:07:00,
2013-11-22 08:12:00,44.8,43.5,30.11,North,360,3.4,3.7,95,0.01,-RA,,0.13,WeatherDisplay:10.37,2013-11-22 13:12:00,
2013-11-22 08:17:00,45.0,43.7,30.11,WSW,248,2.7,3.7,95,0.01,-RA,,0.13,WeatherDisplay:10.37,2013-11-22 13:17:00,
2013-11-22 08:22:00,45.0,43.7,30.11,NE,45,3.5,4.6,95,0.01,-DZ,,0.13,WeatherDisplay:10.37,2013-11-22 13:22:00,
2013-11-22 08:27:00,45.1,43.8,30.11,WSW,248,3.1,4.6,95,0.01,-DZ,,0.13,WeatherDisplay:10.37,2013-11-22 13:27:00,
2013-11-22 08:32:00,45.1,43.8,30.11,West,270,2.4,3.5,95,0.00,-DZ,,0.13,WeatherDisplay:10.37,2013-11-22 13:32:00,
2013-11-22 08:37:00,45.1,43.8,30.11,SW,225,2.8,2.8,95,0.00,-DZ,,0.13,WeatherDisplay:10.37,2013-11-22 13:37:00,
2013-11-22 08:42:00,45.1,43.8,30.10,South,180,3.1,3.7,95,0.00,-DZ,,0.13,WeatherDisplay:10.37,2013-11-22 13:42:00,
2013-11-22 08:47:00,45.3,44.0,30.10,West,270,3.1,3.5,95,0.00,-DZ,,0.13,WeatherDisplay:10.37,2013-11-22 13:47:00,
2013-11-22 08:52:00,45.3,44.0,30.09,SW,225,2.8,3.5,95,0.00,-DZ,,0.13,WeatherDisplay:10.37,2013-11-22 13:52:00,
2013-11-22 08:57:00,45.3,44.0,30.09,West,270,2.7,3.5,95,0.00,-DZ,,0.13,WeatherDisplay:10.37,2013-11-22 13:57:00,
2013-11-22 09:02:00,45.3,44.0,30.09,West,270,2.5,3.5,95,0.00,-DZ,,0.13,WeatherDisplay:10.37,2013-11-22 14:02:00,
2013-11-22 09:07:00,45.5,44.2,30.09,SW,225,2.5,3.5,95,0.00,-DZ,,0.13,WeatherDisplay:10.37,2013-11-22 14:07:00,
2013-11-22 09:12:00,45.5,44.2,30.09,SW,225,2.5,3.2,95,0.00,-DZ,,0.13,WeatherDisplay:10.37,2013-11-22 14:12:00,
2013-11-22 09:17:00,45.5,44.2,30.09,West,270,4.1,5.8,95,0.00,-DZ,,0.13,WeatherDisplay:10.37,2013-11-22 14:17:00,
2013-11-22 09:22:00,45.5,44.2,30.09,WSW,248,2.8,4.6,95,0.00,-DZ,,0.13,WeatherDisplay:10.37,2013-11-22 14:22:00,
2013-11-22 09:27:00,45.7,44.4,30.09,WSW,248,2.4,5.3,95,0.00,-DZ,,0.13,WeatherDisplay:10.37,2013-11-22 14:27:00,
2013-11-22 09:32:00,45.7,44.4,30.09,West,270,3.5,4.6,95,0.00,-DZ,,0.13,WeatherDisplay:10.37,2013-11-22 14:32:00,
2013-11-22 09:37:00,45.7,44.4,30.09,West,270,3.0,3.5,95,0.00,-DZ,,0.13,WeatherDisplay:10.37,2013-11-22 14:37:00,
2013-11-22 09:42:00,45.7,44.4,30.10,SW,225,2.9,4.6,95,0.00,-DZ,,0.13,WeatherDisplay:10.37,2013-11-22 14:42:00,
2013-11-22 09:47:00,45.9,44.5,30.10,West,270,3.3,4.7,95,0.00,-DZ,,0.13,WeatherDisplay:10.37,2013-11-22 14:47:00,
2013-11-22 09:52:00,45.9,44.5,30.09,West,270,5.2,6.9,95,0.00,-DZ,,0.13,WeatherDisplay:10.37,2013-11-22 14:52:00,
2013-11-22 09:57:00,46.0,44.6,30.09,SW,225,3.1,4.7,95,0.00,-DZ,,0.13,WeatherDisplay:10.37,2013-11-22 14:57:00,
2013-11-22 10:02:00,46.0,44.6,30.09,WSW,248,2.2,3.5,95,0.00,-DZ,,0.13,WeatherDisplay:10.37,2013-11-22 15:02:00,
2013-11-22 10:07:00,46.0,44.6,30.09,SW,225,2.5,3.5,95,0.00,-DZ,,0.13,WeatherDisplay:10.37,2013-11-22 15:07:00,
2013-11-22 10:12:00,46.2,44.8,30.09,West,270,3.4,3.7,95,0.00,-DZ,,0.14,WeatherDisplay:10.37,2013-11-22 15:12:00,
2013-11-22 10:17:00,46.2,44.8,30.09,SW,225,3.2,3.7,95,0.01,-DZ,,0.14,WeatherDisplay:10.37,2013-11-22 15:17:00,
2013-11-22 10:22:00,46.2,44.8,30.09,West,270,3.2,4.6,95,0.01,-DZ,,0.14,WeatherDisplay:10.37,2013-11-22 15:22:00,
2013-11-22 10:27:00,46.4,45.0,30.08,West,270,2.5,3.2,95,0.01,-DZ,,0.14,WeatherDisplay:10.37,2013-11-22 15:27:00,
2013-11-22 10:32:00,46.4,45.0,30.08,South,180,2.4,2.7,95,0.01,-DZ,,0.14,WeatherDisplay:10.37,2013-11-22 15:32:00,
2013-11-22 10:37:00,46.4,45.0,30.08,SW,225,3.4,4.6,95,0.01,-DZ,,0.14,WeatherDisplay:10.37,2013-11-22 15:37:00,
2013-11-22 10:42:00,46.6,45.2,30.07,West,270,1.8,3.2,95,0.01,-DZ,,0.14,WeatherDisplay:10.37,2013-11-22 15:42:00,
2013-11-22 10:47:00,46.6,45.2,30.07,SW,225,2.6,4.6,95,0.01,-DZ,,0.14,WeatherDisplay:10.37,2013-11-22 15:47:00,
2013-11-22 10:52:00,46.6,45.2,30.07,WSW,248,3.7,5.8,95,0.02,-DZ,,0.15,WeatherDisplay:10.37,2013-11-22 15:52:00,
2013-11-22 10:57:00,46.6,45.2,30.07,West,270,6.2,6.2,95,0.02,-DZ,,0.15,WeatherDisplay:10.37,2013-11-22 15:57:00,
2013-11-22 11:02:00,46.6,45.2,30.08,WSW,248,2.9,3.5,95,0.02,-DZ,,0.15,WeatherDisplay:10.37,2013-11-22 16:02:00,
2013-11-22 11:07:00,46.8,45.4,30.08,West,270,3.2,4.6,95,0.02,-DZ,,0.15,WeatherDisplay:10.37,2013-11-22 16:07:00,
2013-11-22 11:12:00,46.8,45.4,30.08,WSW,248,4.9,5.8,95,0.02,-RA,,0.15,WeatherDisplay:10.37,2013-11-22 16:12:00,
2013-11-22 11:17:00,46.8,45.4,30.07,WSW,248,4.4,4.6,95,0.01,-RA,,0.15,WeatherDisplay:10.37,2013-11-22 16:17:00,
2013-11-22 11:20:00,32.0,26.5,30.09,SW,225,6.0,9.0,80,0.00,RA,RA,0.42,WeatherDisplay:10.37,2013-11-22 16:20:00,
2013-11-22 11:22:00,47.1,45.7,30.07,WSW,248,3.3,3.7,95,0.01,-RA,,0.15,WeatherDisplay:10.37,2013-11-22 16:22:00,
2013-11-22 11:25:00,32.0,26.5,30.09,WSW,239,3.0,6.0,80,0.00,RA,RA,0.42,WeatherDisplay:10.37,2013-11-22 16:25:00,
2013-11-22 11:27:00,47.1,45.7,30.06,SSW,202,4.3,5.3,95,0.01,-RA,,0.15,WeatherDisplay:10.37,2013-11-22 16:27:00,
2013-11-22 11:30:00,32.0,26.5,30.09,West,270,3.0,6.0,80,0.00,BKN,BKN,0.42,WeatherDisplay:10.37,2013-11-22 16:30:00,
2013-11-22 11:32:00,47.1,45.7,30.06,West,270,4.0,6.8,95,0.02,-RA,,0.16,WeatherDisplay:10.37,2013-11-22 16:32:00,
2013-11-22 11:37:00,47.1,45.7,30.06,WNW,292,3.7,3.7,95,0.02,-RA,,0.16,WeatherDisplay:10.37,2013-11-22 16:37:00,
2013-11-22 11:42:00,47.1,45.7,30.07,WSW,248,3.8,4.6,95,0.02,-RA,,0.16,WeatherDisplay:10.37,2013-11-22 16:42:00,
2013-11-22 11:47:00,47.1,45.7,30.07,WSW,248,3.2,4.6,95,0.02,-RA,,0.16,WeatherDisplay:10.37,2013-11-22 16:47:00,
2013-11-22 11:52:00,47.1,45.7,30.05,SW,225,5.0,5.8,95,0.02,-RA,,0.17,WeatherDisplay:10.37,2013-11-22 16:52:00,
2013-11-22 11:57:00,47.3,45.9,30.05,WSW,248,5.3,5.8,95,0.02,-RA,,0.17,WeatherDisplay:10.37,2013-11-22 16:57:00,
2013-11-22 12:02:00,47.3,45.9,30.05,WSW,248,2.6,3.5,95,0.02,-RA,,0.17,WeatherDisplay:10.37,2013-11-22 17:02:00,
2013-11-22 12:07:00,47.3,45.9,30.05,WNW,292,3.1,3.5,95,0.02,-RA,,0.17,WeatherDisplay:10.37,2013-11-22 17:07:00,
2013-11-22 12:12:00,47.3,45.9,30.05,West,270,4.1,5.8,95,0.02,-RA,,0.17,WeatherDisplay:10.37,2013-11-22 17:12:00,
2013-11-22 12:17:00,47.5,46.1,30.05,West,270,4.5,4.7,95,0.03,-RA,,0.18,WeatherDisplay:10.37,2013-11-22 17:17:00,
2013-11-22 12:20:00,31.0,25.6,30.09,West,259,7.0,7.0,80,0.00,SCT,SCT,0.00,WeatherDisplay:10.37,2013-11-22 17:20:00,
2013-11-22 12:22:00,47.5,46.1,30.05,WSW,248,5.2,6.9,95,0.03,-RA,,0.18,WeatherDisplay:10.37,2013-11-22 17:22:00,
2013-11-22 12:27:00,47.5,46.1,30.04,West,270,3.3,4.6,95,0.03,-RA,,0.18,WeatherDisplay:10.37,2013-11-22 17:27:00,
2013-11-22 12:32:00,47.5,46.1,30.04,SSE,158,2.7,4.6,95,0.02,-RA,,0.18,WeatherDisplay:10.37,2013-11-22 17:32:00,
2013-11-22 12:37:00,47.5,46.1,30.04,WSW,248,3.3,3.5,95,0.02,-RA,,0.19,WeatherDisplay:10.37,2013-11-22 17:37:00,
2013-11-22 12:42:00,47.5,46.1,30.04,West,270,5.2,9.2,95,0.03,-RA,,0.19,WeatherDisplay:10.37,2013-11-22 17:42:00,
2013-11-22 12:47:00,47.5,46.1,30.04,SW,225,4.2,5.8,95,0.03,-RA,,0.19,WeatherDisplay:10.37,2013-11-22 17:47:00,
2013-11-22 12:52:00,47.5,46.1,30.03,West,270,4.4,4.6,95,0.02,-RA,,0.19,WeatherDisplay:10.37,2013-11-22 17:52:00,
2013-11-22 12:57:00,47.5,46.1,30.03,WSW,248,4.4,5.8,95,0.02,-RA,,0.19,WeatherDisplay:10.37,2013-11-22 17:57:00,
2013-11-22 13:02:00,47.7,46.3,30.02,WNW,292,4.7,5.8,95,0.02,-RA,,0.19,WeatherDisplay:10.37,2013-11-22 18:02:00,
2013-11-22 13:07:00,47.7,46.3,30.02,SW,225,6.8,7.8,95,0.02,-RA,,0.19,WeatherDisplay:10.37,2013-11-22 18:07:00,
2013-11-22 13:12:00,47.7,46.3,30.02,WSW,248,6.6,9.2,95,0.02,-RA,,0.19,WeatherDisplay:10.37,2013-11-22 18:12:00,
2013-11-22 13:17:00,47.5,46.1,30.02,West,270,9.0,10.4,95,0.01,-RA,,0.19,WeatherDisplay:10.37,2013-11-22 18:17:00,
2013-11-22 13:22:00,47.5,46.1,30.02,SW,225,5.5,5.8,95,0.01,-RA,,0.19,WeatherDisplay:10.37,2013-11-22 18:22:00,
2013-11-22 13:27:00,47.5,46.1,30.02,WNW,292,6.9,8.8,95,0.01,-RA,,0.19,WeatherDisplay:10.37,2013-11-22 18:27:00,
2013-11-22 13:32:00,47.5,46.1,30.02,SW,225,7.0,8.8,95,0.01,-RA,,0.19,WeatherDisplay:10.37,2013-11-22 18:32:00,
2013-11-22 13:37:00,47.3,45.9,30.02,South,180,8.3,9.2,95,0.01,-RA,,0.19,WeatherDisplay:10.37,2013-11-22 18:37:00,
2013-11-22 13:42:00,47.3,45.9,30.02,South,180,6.8,6.9,95,0.00,-RA,,0.19,WeatherDisplay:10.37,2013-11-22 18:42:00,
2013-11-22 13:47:00,47.1,45.7,30.02,SW,225,6.6,9.2,95,0.00,-RA,,0.19,WeatherDisplay:10.37,2013-11-22 18:47:00,
2013-11-22 13:52:00,47.1,45.7,30.02,West,270,6.3,9.2,95,0.01,-RA,,0.20,WeatherDisplay:10.37,2013-11-22 18:52:00,
2013-11-22 13:57:00,47.1,45.7,30.02,WSW,248,7.7,9.2,95,0.01,-RA,,0.20,WeatherDisplay:10.37,2013-11-22 18:57:00,
2013-11-22 14:02:00,46.9,45.5,30.02,SW,225,7.6,7.6,95,0.01,-RA,,0.20,WeatherDisplay:10.37,2013-11-22 19:02:00,
2013-11-22 14:07:00,46.9,45.5,30.01,South,180,4.7,5.8,95,0.01,-RA,,0.20,WeatherDisplay:10.37,2013-11-22 19:07:00,
2013-11-22 14:12:00,46.9,45.5,30.01,WNW,292,6.9,8.8,95,0.01,-RA,,0.20,WeatherDisplay:10.37,2013-11-22 19:12:00,
2013-11-22 14:17:00,46.6,45.2,30.00,WNW,292,6.8,9.2,95,0.01,-RA,,0.20,WeatherDisplay:10.37,2013-11-22 19:17:00,
2013-11-22 14:22:00,46.4,45.0,30.00,East,90,5.7,11.5,95,0.01,-RA,,0.20,WeatherDisplay:10.37,2013-11-22 19:22:00,
2013-11-22 14:27:00,46.4,45.0,30.00,West,270,3.4,8.1,95,0.01,-RA,,0.20,WeatherDisplay:10.37,2013-11-22 19:27:00,
2013-11-22 14:32:00,46.2,44.8,30.00,SW,225,6.7,6.9,95,0.01,-RA,,0.20,WeatherDisplay:10.37,2013-11-22 19:32:00,
2013-11-22 14:37:00,46.2,44.8,30.00,West,270,5.3,7.3,95,0.01,-RA,,0.20,WeatherDisplay:10.37,2013-11-22 19:37:00,
2013-11-22 14:42:00,46.2,44.8,30.00,West,270,6.6,8.1,95,0.01,-RA,,0.20,WeatherDisplay:10.37,2013-11-22 19:42:00,
2013-11-22 14:47:00,46.2,44.8,30.00,WNW,292,9.0,10.9,95,0.01,-RA,,0.20,WeatherDisplay:10.37,2013-11-22 19:47:00,
2013-11-22 14:52:00,46.2,44.8,30.01,SW,225,6.6,9.9,95,0.01,-RA,,0.21,WeatherDisplay:10.37,2013-11-22 19:52:00,
2013-11-22 14:57:00,46.0,44.6,30.01,West,270,6.2,9.2,95,0.01,-RA,,0.21,WeatherDisplay:10.37,2013-11-22 19:57:00,
2013-11-22 15:02:00,46.0,44.6,30.00,West,270,6.3,6.9,95,0.02,RA,,0.22,WeatherDisplay:10.37,2013-11-22 20:02:00,
2013-11-22 15:07:00,46.0,44.6,30.00,West,270,4.7,4.7,95,0.02,RA,,0.22,WeatherDisplay:10.37,2013-11-22 20:07:00,
2013-11-22 15:12:00,46.0,44.6,30.00,West,270,5.9,9.2,95,0.03,RA,,0.23,WeatherDisplay:10.37,2013-11-22 20:12:00,
2013-11-22 15:17:00,46.0,44.6,30.01,WSW,248,7.9,8.1,95,0.03,RA,,0.24,WeatherDisplay:10.37,2013-11-22 20:17:00,
2013-11-22 15:22:00,46.0,44.6,30.01,WSW,248,5.9,8.1,95,0.04,-RA,,0.24,WeatherDisplay:10.37,2013-11-22 20:22:00,
2013-11-22 15:27:00,46.0,44.6,30.01,WSW,248,7.2,9.2,95,0.05,-RA,,0.25,WeatherDisplay:10.37,2013-11-22 20:27:00,
2013-11-22 15:32:00,45.9,44.5,30.01,West,270,5.6,6.9,95,0.05,-RA,,0.25,WeatherDisplay:10.37,2013-11-22 20:32:00,
2013-11-22 15:37:00,45.9,44.5,30.01,WSW,248,7.8,8.1,95,0.06,-RA,,0.26,WeatherDisplay:10.37,2013-11-22 20:37:00,
2013-11-22 15:42:00,45.9,44.5,30.01,WSW,248,4.4,6.9,95,0.07,RA,,0.27,WeatherDisplay:10.37,2013-11-22 20:42:00,
2013-11-22 15:47:00,45.9,44.5,30.01,WSW,248,6.3,6.3,95,0.07,RA,,0.27,WeatherDisplay:10.37,2013-11-22 20:47:00,
2013-11-22 15:52:00,45.9,44.5,30.01,SSW,202,4.6,6.9,95,0.07,RA,,0.28,WeatherDisplay:10.37,2013-11-22 20:52:00,
2013-11-22 15:57:00,45.9,44.5,30.01,WSW,248,4.5,6.8,95,0.07,RA,,0.28,WeatherDisplay:10.37,2013-11-22 20:57:00,
2013-11-22 16:02:00,45.9,44.5,30.01,West,270,5.1,6.3,95,0.07,RA,,0.29,WeatherDisplay:10.37,2013-11-22 21:02:00,
2013-11-22 16:07:00,45.7,44.4,30.01,West,270,6.7,6.9,95,0.07,RA,,0.29,WeatherDisplay:10.37,2013-11-22 21:07:00,
2013-11-22 16:12:00,45.7,44.4,30.01,West,270,4.1,5.8,95,0.06,-RA,,0.29,WeatherDisplay:10.37,2013-11-22 21:12:00,
2013-11-22 16:17:00,45.7,44.4,30.01,SW,225,5.4,8.1,95,0.06,-RA,,0.29,WeatherDisplay:10.37,2013-11-22 21:17:00,
2013-11-22 16:22:00,45.5,44.2,30.01,WSW,248,6.1,8.1,95,0.05,-RA,,0.29,WeatherDisplay:10.37,2013-11-22 21:22:00,
2013-11-22 16:27:00,45.5,44.2,30.01,WNW,292,6.2,6.2,95,0.05,-RA,,0.30,WeatherDisplay:10.37,2013-11-22 21:27:00,
2013-11-22 16:32:00,45.5,44.2,30.01,WNW,292,4.7,6.9,95,0.05,-RA,,0.30,WeatherDisplay:10.37,2013-11-22 21:32:00,
2013-11-22 16:37:00,45.3,44.0,30.01,WSW,248,4.8,5.8,95,0.04,-RA,,0.30,WeatherDisplay:10.37,2013-11-22 21:37:00,
2013-11-22 16:42:00,45.3,44.0,30.01,WSW,248,4.5,5.8,95,0.04,-RA,,0.31,WeatherDisplay:10.37,2013-11-22 21:42:00,
2013-11-22 16:47:00,45.3,44.0,30.01,West,270,5.8,7.8,95,0.05,-RA,,0.32,WeatherDisplay:10.37,2013-11-22 21:47:00,
2013-11-22 16:52:00,45.3,44.0,30.02,West,270,5.8,5.8,95,0.04,-RA,,0.32,WeatherDisplay:10.37,2013-11-22 21:52:00,
2013-11-22 16:57:00,45.1,43.8,30.02,West,270,5.6,6.9,95,0.06,-RA,,0.34,WeatherDisplay:10.37,2013-11-22 21:57:00,
2013-11-22 17:02:00,45.1,43.8,30.02,West,270,6.1,9.2,95,0.06,-RA,,0.35,WeatherDisplay:10.37,2013-11-22 22:02:00,
2013-11-22 17:07:00,45.1,43.8,30.02,NNW,338,7.2,10.4,95,0.06,-RA,,0.35,WeatherDisplay:10.37,2013-11-22 22:07:00,
2013-11-22 17:12:00,45.1,43.8,30.02,West,270,5.1,6.9,95,0.06,-RA,,0.35,WeatherDisplay:10.37,2013-11-22 22:12:00,
2013-11-22 17:17:00,45.1,43.8,30.03,SW,225,8.1,11.4,95,0.07,-RA,,0.36,WeatherDisplay:10.37,2013-11-22 22:17:00,
2013-11-22 17:22:00,45.1,43.8,30.03,West,270,6.7,8.1,95,0.08,-RA,,0.37,WeatherDisplay:10.37,2013-11-22 22:22:00,
2013-11-22 17:27:00,45.1,43.8,30.03,WSW,248,5.3,5.8,95,0.07,-RA,,0.37,WeatherDisplay:10.37,2013-11-22 22:27:00,
2013-11-22 17:32:00,45.0,43.7,30.03,WSW,248,7.7,17.1,95,0.09,-RA,,0.39,WeatherDisplay:10.37,2013-11-22 22:32:00,
2013-11-22 17:37:00,43.3,42.0,30.05,North,360,10.3,11.5,95,0.10,-RA,,0.40,WeatherDisplay:10.37,2013-11-22 22:37:00,
2013-11-22 17:42:00,43.0,41.7,30.05,West,270,12.7,13.8,95,0.09,-RA,,0.40,WeatherDisplay:10.37,2013-11-22 22:42:00,
2013-11-22 17:47:00,42.6,41.3,30.05,West,270,8.1,11.5,95,0.09,-RA,,0.41,WeatherDisplay:10.37,2013-11-22 22:47:00,
2013-11-22 17:52:00,42.3,40.7,30.05,West,270,11.0,16.1,94,0.09,-RA,,0.41,WeatherDisplay:10.37,2013-11-22 22:52:00,
2013-11-22 17:57:00,42.3,40.7,30.05,West,270,11.4,11.5,94,0.07,-RA,,0.41,WeatherDisplay:10.37,2013-11-22 22:57:00,
2013-11-22 18:02:00,41.9,40.0,30.06,SSW,202,9.0,11.5,93,0.06,-RA,,0.41,WeatherDisplay:10.37,2013-11-22 23:02:00,
2013-11-22 18:07:00,41.7,39.8,30.06,West,270,5.8,5.8,93,0.06,-RA,,0.41,WeatherDisplay:10.37,2013-11-22 23:07:00,
2013-11-22 18:12:00,41.4,38.7,30.06,West,270,9.4,12.4,90,0.06,-RA,,0.41,WeatherDisplay:10.37,2013-11-22 23:12:00,
2013-11-22 18:17:00,41.2,38.2,30.06,South,180,6.3,12.7,89,0.05,-RA,,0.41,WeatherDisplay:10.37,2013-11-22 23:17:00,
2013-11-22 18:22:00,40.8,37.8,30.06,West,270,7.7,16.1,89,0.04,-RA,,0.41,WeatherDisplay:10.37,2013-11-22 23:22:00,
2013-11-22 18:27:00,40.8,37.8,30.07,South,180,8.5,10.4,89,0.04,-RA,,0.41,WeatherDisplay:10.37,2013-11-22 23:27:00,
2013-11-22 18:32:00,40.6,37.9,30.07,WSW,248,6.9,9.2,90,0.02,-RA,,0.41,WeatherDisplay:10.37,2013-11-22 23:32:00,
2013-11-22 18:37:00,40.3,37.6,30.07,WSW,248,9.1,10.4,90,0.02,-RA,,0.42,WeatherDisplay:10.37,2013-11-22 23:37:00,
2013-11-22 18:42:00,39.9,37.2,30.07,West,270,5.8,7.8,90,0.02,-RA,,0.42,WeatherDisplay:10.37,2013-11-22 23:42:00,
2013-11-22 18:47:00,39.9,37.2,30.07,NW,315,7.2,8.8,90,0.01,-RA,,0.42,WeatherDisplay:10.37,2013-11-22 23:47:00,
2013-11-22 18:52:00,39.7,37.0,30.08,WSW,248,7.2,8.1,90,0.01,-RA,,0.42,WeatherDisplay:10.37,2013-11-22 23:52:00,
2013-11-22 18:57:00,39.7,37.0,30.08,SSW,202,3.9,7.8,90,0.01,-RA,,0.42,WeatherDisplay:10.37,2013-11-22 23:57:00,
2013-11-22 19:02:00,39.7,37.0,30.08,West,270,6.1,9.9,90,0.01,-RA,,0.42,WeatherDisplay:10.37,2013-11-23 00:02:00,
2013-11-22 19:07:00,39.7,37.0,30.09,WSW,248,5.1,6.3,90,0.01,-RA,,0.42,WeatherDisplay:10.37,2013-11-23 00:07:00,
2013-11-22 19:12:00,39.7,36.4,30.09,NW,315,8.0,10.4,88,0.01,-RA,,0.42,WeatherDisplay:10.37,2013-11-23 00:12:00,
2013-11-22 19:17:00,39.6,36.3,30.10,SW,225,10.0,12.7,88,0.01,-RA,,0.42,WeatherDisplay:10.37,2013-11-23 00:17:00,
2013-11-22 19:22:00,39.6,36.3,30.10,WSW,248,9.9,11.5,88,0.01,-RA,,0.42,WeatherDisplay:10.37,2013-11-23 00:22:00,
2013-11-22 19:27:00,39.4,35.9,30.11,West,270,9.7,16.1,87,0.01,-RA,,0.42,WeatherDisplay:10.37,2013-11-23 00:27:00,
2013-11-22 19:32:00,39.2,35.7,30.11,West,270,10.6,13.8,87,0.01,OVC,,0.42,WeatherDisplay:10.37,2013-11-23 00:32:00,
2013-11-22 19:37:00,39.0,35.2,30.11,West,270,5.4,15.0,86,0.01,OVC,,0.42,WeatherDisplay:10.37,2013-11-23 00:37:00,
2013-11-22 19:42:00,39.0,35.2,30.11,West,270,8.4,11.5,86,0.00,OVC,,0.42,WeatherDisplay:10.37,2013-11-23 00:42:00,
2013-11-22 19:47:00,39.0,35.2,30.11,West,270,5.6,7.3,86,0.00,OVC,,0.42,WeatherDisplay:10.37,2013-11-23 00:47:00,
2013-11-22 19:52:00,38.8,34.4,30.11,West,270,11.6,19.6,84,0.00,OVC,,0.42,WeatherDisplay:10.37,2013-11-23 00:52:00,
2013-11-22 19:57:00,38.7,34.3,30.11,WSW,248,9.1,11.5,84,0.00,OVC,,0.42,WeatherDisplay:10.37,2013-11-23 00:57:00,
2013-11-22 20:02:00,38.5,34.1,30.13,WSW,248,11.4,11.5,84,0.00,BKN,,0.42,WeatherDisplay:10.37,2013-11-23 01:02:00,
2013-11-22 20:07:00,38.3,33.3,30.13,West,270,10.5,13.8,82,0.00,BKN,,0.42,WeatherDisplay:10.37,2013-11-23 01:07:00,
2013-11-22 20:12:00,37.9,32.9,30.13,West,270,7.8,10.4,82,0.00,OVC,,0.42,WeatherDisplay:10.37,2013-11-23 01:12:00,
2013-11-22 20:17:00,37.8,32.8,30.14,WSW,248,9.9,12.7,82,0.00,OVC,,0.42,WeatherDisplay:10.37,2013-11-23 01:17:00,
2013-11-22 20:22:00,37.6,32.3,30.14,WSW,248,9.1,10.4,81,0.00,BKN,,0.42,WeatherDisplay:10.37,2013-11-23 01:22:00,
2013-11-22 20:27:00,37.2,31.9,30.14,SW,225,5.4,8.1,81,0.00,BKN,,0.42,WeatherDisplay:10.37,2013-11-23 01:27:00,
2013-11-22 20:32:00,37.2,31.9,30.14,West,270,10.2,16.1,81,0.00,BKN,,0.42,WeatherDisplay:10.37,2013-11-23 01:32:00,
2013-11-22 20:37:00,37.2,31.9,30.14,West,270,6.4,8.8,81,0.00,BKN,,0.42,WeatherDisplay:10.37,2013-11-23 01:37:00,
2013-11-22 20:42:00,37.2,31.9,30.15,WNW,292,4.8,6.9,81,0.00,BKN,,0.42,WeatherDisplay:10.37,2013-11-23 01:42:00,
2013-11-22 20:47:00,37.2,32.2,30.15,WNW,292,6.4,6.9,82,0.00,BKN,,0.42,WeatherDisplay:10.37,2013-11-23 01:47:00,
2013-11-22 20:52:00,37.2,31.6,30.15,West,270,8.1,12.7,80,0.00,BKN,,0.42,WeatherDisplay:10.37,2013-11-23 01:52:00,
2013-11-22 20:57:00,37.2,31.6,30.15,NNW,338,6.3,6.3,80,0.00,BKN,,0.42,WeatherDisplay:10.37,2013-11-23 01:57:00,
2013-11-22 21:02:00,37.0,31.7,30.15,West,270,6.9,6.9,81,0.00,BKN,,0.42,WeatherDisplay:10.37,2013-11-23 02:02:00,
2013-11-22 21:07:00,37.0,31.4,30.15,West,270,7.8,8.1,80,0.00,BKN,,0.42,WeatherDisplay:10.37,2013-11-23 02:07:00,
2013-11-22 21:12:00,36.9,31.0,30.15,WSW,248,7.4,10.9,79,0.00,BKN,,0.42,WeatherDisplay:10.37,2013-11-23 02:12:00,
2013-11-22 21:17:00,36.9,31.0,30.16,WNW,292,11.4,11.5,79,0.00,BKN,,0.42,WeatherDisplay:10.37,2013-11-23 02:17:00,
2013-11-22 21:22:00,36.7,30.8,30.16,SW,225,6.4,10.4,79,0.00,BKN,,0.42,WeatherDisplay:10.37,2013-11-23 02:22:00,
2013-11-22 21:27:00,36.5,30.6,30.16,WSW,248,8.8,10.4,79,0.00,BKN,,0.42,WeatherDisplay:10.37,2013-11-23 02:27:00,
2013-11-22 21:32:00,36.5,30.9,30.16,WNW,292,5.3,8.1,80,0.00,BKN,,0.42,WeatherDisplay:10.37,2013-11-23 02:32:00,
2013-11-22 21:37:00,36.3,30.7,30.16,West,270,6.9,10.4,80,0.00,BKN,,0.42,WeatherDisplay:10.37,2013-11-23 02:37:00,
2013-11-22 21:42:00,36.1,30.5,30.17,West,270,11.2,13.8,80,0.00,BKN,,0.42,WeatherDisplay:10.37,2013-11-23 02:42:00,
2013-11-22 21:47:00,36.0,30.1,30.17,West,270,10.2,12.7,79,0.00,BKN,,0.42,WeatherDisplay:10.37,2013-11-23 02:47:00,
2013-11-22 21:52:00,36.0,29.8,30.17,WNW,292,13.0,13.0,78,0.00,BKN,,0.42,WeatherDisplay:10.37,2013-11-23 02:52:00,
2013-11-22 21:57:00,35.6,29.7,30.17,NW,315,6.5,8.1,79,0.00,BKN,,0.42,WeatherDisplay:10.37,2013-11-23 02:57:00,
2013-11-22 22:02:00,35.4,29.5,30.17,West,270,8.7,10.4,79,0.00,BKN,,0.42,WeatherDisplay:10.37,2013-11-23 03:02:00,
2013-11-22 22:07:00,35.4,29.5,30.17,WSW,248,7.5,10.4,79,0.00,BKN,,0.42,WeatherDisplay:10.37,2013-11-23 03:07:00,
2013-11-22 22:12:00,35.2,29.3,30.17,West,270,10.5,11.5,79,0.00,BKN,,0.42,WeatherDisplay:10.37,2013-11-23 03:12:00,
2013-11-22 22:17:00,34.7,28.5,30.18,West,270,7.2,9.4,78,0.00,BKN,,0.42,WeatherDisplay:10.37,2013-11-23 03:17:00,
2013-11-22 22:22:00,34.0,27.5,30.18,West,270,7.3,9.2,77,0.00,BKN,,0.42,WeatherDisplay:10.37,2013-11-23 03:22:00,
2013-11-22 22:27:00,33.4,27.0,30.18,SW,225,7.1,9.2,77,0.00,BKN,,0.42,WeatherDisplay:10.37,2013-11-23 03:27:00,
2013-11-22 22:32:00,33.3,27.2,30.18,SW,225,9.3,9.4,78,0.00,BKN,,0.42,WeatherDisplay:10.37,2013-11-23 03:32:00,
2013-11-22 22:37:00,33.3,27.2,30.18,SW,225,9.4,9.4,78,0.00,BKN,,0.42,WeatherDisplay:10.37,2013-11-23 03:37:00,
2013-11-22 22:42:00,33.3,27.2,30.18,SW,225,9.4,9.4,78,0.00,SCT,,0.42,WeatherDisplay:10.37,2013-11-23 03:42:00,
2013-11-22 22:47:00,33.3,27.2,30.18,SW,225,9.4,9.4,78,0.00,SCT,,0.42,WeatherDisplay:10.37,2013-11-23 03:47:00,
2013-11-22 22:52:00,33.3,27.2,30.18,SW,225,9.4,9.4,78,0.00,BKN,,0.42,WeatherDisplay:10.37,2013-11-23 03:52:00,
2013-11-22 22:57:00,33.3,27.2,30.18,SW,225,9.4,9.4,78,0.00,BKN,,0.42,WeatherDisplay:10.37,2013-11-23 03:57:00,
2013-11-22 23:02:00,33.3,27.2,30.18,SW,225,9.4,9.4,78,0.00,BKN,,0.42,WeatherDisplay:10.37,2013-11-23 04:02:00,
2013-11-22 23:07:00,33.3,27.2,30.18,SW,225,9.4,9.4,78,0.00,BKN,,0.42,WeatherDisplay:10.37,2013-11-23 04:07:00,
2013-11-22 23:12:00,33.3,27.2,30.18,SW,225,9.4,9.4,78,0.00,BKN,,0.42,WeatherDisplay:10.37,2013-11-23 04:12:00,
2013-11-22 23:17:00,33.3,27.2,30.18,SW,225,9.4,9.4,78,0.00,BKN,,0.42,WeatherDisplay:10.37,2013-11-23 04:17:00,
2013-11-22 23:22:00,33.3,27.2,30.18,SW,225,9.4,9.4,78,0.00,BKN,,0.42,WeatherDisplay:10.37,2013-11-23 04:22:00,
2013-11-22 23:31:00,31.6,26.4,30.18,SW,225,0.0,9.2,81,0.00,CLR,,0.42,WeatherDisplay:10.37,2013-11-23 04:31:00,
2013-11-22 23:36:00,31.6,26.4,30.20,WSW,248,1.7,1.7,81,0.00,BKN,,0.42,WeatherDisplay:10.37,2013-11-23 04:36:00,
2013-11-22 23:41:00,31.6,26.7,30.20,WSW,248,1.1,1.1,82,0.00,SCT,,0.42,WeatherDisplay:10.37,2013-11-23 04:41:00,
2013-11-22 23:46:00,31.6,26.7,30.20,North,0,1.1,1.1,82,0.00,SCT,,0.42,WeatherDisplay:10.37,2013-11-23 04:46:00,
2013-11-22 23:51:00,31.1,26.2,30.19,West,270,3.6,4.6,82,0.00,SCT,,0.42,WeatherDisplay:10.37,2013-11-23 04:51:00,
2013-11-22 23:56:00,31.1,26.2,30.19,WNW,292,4.2,5.8,82,0.00,SCT,,0.42,WeatherDisplay:10.37,2013-11-23 04:56:00,